EA3GYL La Torregassa ES current weather conditions

sailwx.info

Wind from 209 at 1 knots gusting 6

Air temperature 26.1° C
Dewpoint 21.1° C

Last reported at 2016-Jul-27 08:14 UTC.
Time now 2016-Jul-27 09:43 UTC

Location: N 41°17' E 001°31'.
View on Google Maps.

See reports from other nearby stations

  
Tides and Currents Weather Stations Pressure Air Temp Water Temp Dewpoint Dewpoint Depression Visibility Wind Speed Wind Dir Waves Ship Positions
date/time (UTC)wind fromknots sea level pressurealtimeterstation pressurevisibilityair tempwater tempwave heightnotes
2016-Jul-27 08:14 209 1 gusting 6 26.1
2016-Jul-27 07:56 150 2 gusting 6 25.6
2016-Jul-27 07:39 197 3 gusting 6 25.0
2016-Jul-27 07:22 183 0 gusting 4 25.0
2016-Jul-27 07:05 198 1 gusting 4 24.4
2016-Jul-27 06:47 190 0 gusting 2 23.9
2016-Jul-27 06:30 214 23.3
2016-Jul-27 06:13 163 22.2
2016-Jul-27 05:55 240 22.2
2016-Jul-27 05:38 251 21.7
2016-Jul-27 05:21 232 21.7
2016-Jul-27 05:04 232 21.1
2016-Jul-27 04:47 233 21.1
2016-Jul-27 04:30 232 21.7
2016-Jul-27 04:13 232 21.1
2016-Jul-27 03:55 233 21.1
2016-Jul-27 03:38 233 21.1
2016-Jul-27 03:22 232 21.1
2016-Jul-27 03:05 233 21.1
2016-Jul-27 02:47 232 21.7
2016-Jul-27 02:30 233 21.7
2016-Jul-27 02:13 233 21.7
2016-Jul-27 01:55 234 21.7
2016-Jul-27 01:38 234 22.2
2016-Jul-27 01:21 233 22.2
2016-Jul-27 01:04 233 22.2
2016-Jul-27 00:47 233 22.2
2016-Jul-27 00:30 233 22.2
2016-Jul-27 00:13 233 22.2
2016-Jul-26 23:55 223 22.2
2016-Jul-26 23:38 223 22.8
2016-Jul-26 23:21 223 22.8
2016-Jul-26 23:04 218 22.8
2016-Jul-26 22:46 218 22.8
2016-Jul-26 22:29 218 22.8
2016-Jul-26 22:12 215 22.8
2016-Jul-26 21:54 215 22.8
2016-Jul-26 21:38 215 22.8
2016-Jul-26 21:21 024 22.8
2016-Jul-26 21:04 033 22.8
2016-Jul-26 20:46 207 23.3
2016-Jul-26 20:29 207 23.3
2016-Jul-26 20:13 164 23.9
2016-Jul-26 19:55 148 0 gusting 3 23.9
2016-Jul-26 19:38 183 24.4
2016-Jul-26 19:22 193 0 gusting 3 25.0
2016-Jul-26 19:05 198 0 gusting 3 25.0
2016-Jul-26 18:47 206 2 gusting 5 26.1
2016-Jul-26 18:31 226 3 gusting 6 26.7
2016-Jul-26 18:14 234 2 gusting 5 26.7
2016-Jul-26 17:56 144 2 gusting 6 27.2
2016-Jul-26 17:39 163 3 gusting 6 27.2
2016-Jul-26 17:22 159 5 gusting 10 27.8
2016-Jul-26 17:05 148 4 gusting 7 28.9
2016-Jul-26 16:47 162 5 gusting 9 28.9
2016-Jul-26 16:31 197 3 gusting 9 29.4
2016-Jul-26 16:14 108 4 gusting 9 30.0
2016-Jul-26 15:56 186 2 gusting 8 30.0
2016-Jul-26 15:39 192 2 gusting 7 30.6
2016-Jul-26 15:22 178 5 gusting 9 30.0
2016-Jul-26 15:05 138 4 gusting 10 30.0
2016-Jul-26 14:48 142 4 gusting 10 30.0
2016-Jul-26 14:31 197 5 gusting 10 30.0
2016-Jul-26 14:13 087 3 gusting 11 29.4
2016-Jul-26 13:55 103 6 gusting 11 30.0
2016-Jul-26 13:38 157 6 gusting 11 30.0
2016-Jul-26 13:21 105 6 gusting 11 30.6
2016-Jul-26 13:04 117 5 gusting 12 30.6
2016-Jul-26 12:47 060 5 gusting 11 30.0
2016-Jul-26 12:30 114 6 gusting 12 30.0
2016-Jul-25 23:42 353 22.2
2016-Jul-25 23:26 353 22.2
2016-Jul-25 23:09 353 22.2
2016-Jul-25 22:51 352 22.2
2016-Jul-25 22:34 353 22.2
2016-Jul-25 22:17 202 22.2
2016-Jul-25 21:59 201 22.2
2016-Jul-25 21:42 202 22.2
2016-Jul-25 21:26 201 22.8
2016-Jul-25 21:09 202 22.8
2016-Jul-25 20:51 216 23.3
2016-Jul-25 20:34 182 23.9
2016-Jul-25 20:17 223 0 gusting 2 23.9
2016-Jul-25 19:59 218 0 gusting 4 24.4
2016-Jul-25 19:43 249 1 gusting 3 24.4
2016-Jul-25 19:26 215 2 gusting 4 25.0
2016-Jul-25 19:09 181 3 gusting 6 25.6
2016-Jul-25 18:51 204 3 gusting 9 26.1
2016-Jul-25 18:34 185 6 gusting 9 26.7
2016-Jul-25 18:18 185 4 gusting 10 27.2
2016-Jul-25 18:00 181 5 gusting 10 27.2
2016-Jul-25 17:43 176 4 gusting 10 27.8
2016-Jul-25 17:26 245 4 gusting 13 27.8
2016-Jul-25 17:09 259 3 gusting 10 28.3
2016-Jul-25 16:52 240 4 gusting 12 28.3
2016-Jul-25 16:35 237 6 gusting 10 28.9
2016-Jul-25 16:18 245 6 gusting 13 28.3
2016-Jul-25 16:01 218 6 gusting 13 28.9
2016-Jul-25 15:44 226 6 gusting 10 28.9
2016-Jul-25 15:27 228 6 gusting 13 28.9
2016-Jul-25 15:10 200 7 gusting 15 28.9
2016-Jul-25 14:53 219 7 gusting 13 29.4
2016-Jul-25 14:36 214 7 gusting 15 29.4
2016-Jul-25 14:19 214 6 gusting 11 29.4
2016-Jul-25 14:02 207 7 gusting 14 29.4
2016-Jul-25 13:45 217 6 gusting 13 29.4
2016-Jul-25 13:28 199 6 gusting 12 30.0
2016-Jul-25 13:11 196 5 gusting 12 30.0
2016-Jul-25 12:54 235 4 gusting 11 30.6
2016-Jul-25 12:37 209 6 gusting 14 30.0
2016-Jul-25 12:19 159 6 gusting 14 30.0
2016-Jul-25 12:02 155 6 gusting 13 30.0
2016-Jul-25 11:45 204 6 gusting 14 30.0
2016-Jul-25 11:28 152 7 gusting 13 30.6
2016-Jul-25 11:11 150 5 gusting 12 30.6
2016-Jul-25 10:54 097 3 gusting 7 30.6
2016-Jul-25 10:37 153 2 gusting 8 30.6
2016-Jul-25 10:20 194 4 gusting 9 30.0
2016-Jul-25 10:03 148 1 gusting 6 28.9
2016-Jul-25 09:45 093 3 gusting 7 28.9
2016-Jul-25 09:28 180 2 gusting 6 28.3
2016-Jul-25 09:11 146 1 gusting 5 28.3